Location: Juzet
(42.9779°N, 0.7597°E)
Time: 02:07:57
(UTC+00:00)

USA 267 - Pass Details

Date: 14 July 2020
Orbit: 1102 x 1106 km, 123.0° (Epoch: 02 August)

Event Time Altitude Azimuth Distance (km) Brightness Sun altitude
Exits shadow 00:32:11 52° 180° (S) 1,341 3.3 -25.0°
Maximum altitude 00:33:28 62° 225° (SW) 1,228 3.2 -25.0°
Drops below altitude 10° 00:39:57 10° 306° (NW) 2,965 5.8 -24.8°
Sets 00:42:29 0° 310° (NW) 3,926 6.6 -24.7°
